Location: Holcomb Observatory
(44.4922°N, 73.1654°W)
Time: 02:55:15
(UTC-04:00)

Cosmos 2360 Rocket - Visible Passes

Search period start: 02 September 2014 00:00
Search period end: 12 September 2014 00:00
Orbit: 833 x 847 km, 71.0° (Epoch: 01 September)

Date Brightness Start Highest point End Pass type
(mag) Time Alt. Az. Time Alt. Az. Time Alt. Az.
02 Sep 4.7 03:07:51 10° ESE 03:10:10 13° E 03:12:29 10° ENE visible
02 Sep 2.2 04:48:33 15° SSW 04:53:16 88° ESE 04:58:57 10° NNE visible
03 Sep 4.7 02:52:45 10° ESE 02:54:38 12° E 02:56:32 10° ENE visible
03 Sep 2.2 04:33:57 22° SSW 04:37:41 83° ESE 04:43:22 10° NNE visible
04 Sep 4.7 02:37:47 10° ESE 02:39:07 11° E 02:40:27 10° E visible
04 Sep 2.2 04:19:16 30° SSW 04:22:07 79° ESE 04:27:47 10° NNE visible
05 Sep 2.3 04:04:31 41° S 04:06:32 75° ESE 04:12:12 10° NNE visible
05 Sep 3.7 05:47:00 10° W 05:51:10 21° NW 05:55:23 10° N visible
06 Sep 2.3 03:49:43 53° S 03:50:58 70° ESE 03:56:36 10° NNE visible
06 Sep 3.6 05:31:31 11° W 05:35:33 22° NW 05:39:52 10° N visible
07 Sep 2.3 03:34:52 62° SE 03:35:24 66° ESE 03:41:00 10° NNE visible
07 Sep 3.6 05:16:39 14° W 05:19:55 23° NW 05:24:21 10° N visible
08 Sep 2.4 03:19:58 62° ESE 03:19:58 62° ESE 03:25:25 10° NNE visible
08 Sep 3.5 05:01:45 18° W 05:04:17 24° NW 05:08:50 10° N visible
09 Sep 2.7 03:05:01 53° ENE 03:05:01 53° ENE 03:09:48 10° NNE visible
09 Sep 3.5 04:46:49 21° W 04:48:39 25° NW 04:53:18 10° N visible
10 Sep 3.1 02:50:03 44° ENE 02:50:03 44° ENE 02:54:12 10° NNE visible
10 Sep 3.4 04:31:50 25° WNW 04:33:02 26° NW 04:37:46 10° N visible
11 Sep 3.5 02:35:02 36° ENE 02:35:02 36° ENE 02:38:35 10° NE visible
11 Sep 3.3 04:16:49 27° WNW 04:17:24 28° NW 04:22:14 10° N visible
